Home   Weather   Copenhagen Basin   Past weeks
Flag for USA

Past Weather in Copenhagen Basin, Idaho, USA — Yesterday and Last 2 Weeks

Now
79 °F

Sunny.


Feels Like: 79 °F
Forecast: 88 / 63 °F
Wind: 14 mph from Southwest

Location: Pocatello Regional Airport

Current Time: Jul 12, 2020 at 11:43:56 am

Latest Report: Jul 12, 2020 at 10:53 am


Visibility: 10 mi

Pressure: 29.95 "Hg

Humidity: 31%

Dew Point: 46 °F

Location of Copenhagen BasinLocation

Past Weather in Copenhagen Basin — Graph

°F

Copenhagen Basin Temperature Yesterday

Maximum temperature yesterday: 93 °F (at 6:53 pm)
Minimum temperature yesterday: 49 °F (at 4:53 am)
Average temperature yesterday: 73 °F

High & Low Weather Summary for the Past Weeks

 TemperatureHumidityPressure
High93 °F (Jul 11, 6:53 pm)93% (Jun 28, 2:53 pm)30.14 "Hg (Jun 28, 2:53 pm)
Low45 °F (Jun 29, 5:53 am)10% (Jul 11, 6:53 pm)29.49 "Hg (Jun 28, 3:53 am)
Average66 °F49%29.87 "Hg
* Reported Jun 27 9:53 am — Jul 12 9:53 am, Copenhagen Basin. Weather by CustomWeather, © 2020

Note: Actual official high and low records may vary slightly from our data, if they occured in-between our weather recording intervals... More about our weather records

Copenhagen Basin Weather History for the Previous 24 Hours

Scroll right to see more
 ConditionsComfort  
Time TempWeatherWind HumidityBarometerVisibility
9:53 am
Sun, Jul 12
75 °FSunny.22 mph34%29.97 "Hg10 mi
8:53 am72 °FSunny.22 mph34%29.97 "Hg10 mi
7:53 am71 °FSunny.21 mph25%29.93 "Hg10 mi
6:53 am69 °FClear.13 mph26%29.90 "Hg10 mi
5:53 am70 °FClear.12 mph25%29.88 "Hg10 mi
4:53 am59 °FClear.7 mph51%29.89 "Hg10 mi
3:53 am53 °FClear.3 mph74%29.90 "Hg10 mi
2:53 am57 °FClear.6 mph69%29.89 "Hg10 mi
1:53 am63 °FClear.5 mph52%29.87 "Hg10 mi
12:53 am65 °FClear.10 mph45%29.87 "Hg10 mi
11:53 pm
Sat, Jul 11
78 °FClear.3 mph23%29.86 "Hg10 mi
10:53 pm69 °FClear.3 mph35%29.91 "Hg10 mi
9:53 pm70 °FSunny.5 mph39%29.92 "Hg10 mi
8:53 pm82 °FSunny.5 mph24%29.90 "Hg10 mi
7:53 pm89 °FSunny.No wind16%29.90 "Hg10 mi
6:53 pm93 °FSunny.6 mph10%29.93 "Hg10 mi
5:53 pm92 °FSunny.8 mph16%29.96 "Hg10 mi
4:53 pm90 °FSunny.9 mph21%30.00 "Hg10 mi
3:53 pm91 °FSunny.9 mph24%30.01 "Hg10 mi
2:53 pm91 °FSunny.8 mph20%30.01 "Hg10 mi
1:53 pm90 °FSunny.8 mph22%30.04 "Hg10 mi
12:53 pm87 °FSunny.8 mph27%30.07 "Hg10 mi
11:53 am82 °FSunny.8 mph31%30.08 "Hg10 mi
Weather by CustomWeather, © 2020

See weather overview